Change the Weather History Date:

Thursday, January 10, 2013

  Actual Average Record
Temperature  
Mean Temperature 72 °F -  
Max Temperature 78 °F 73 °F 82 °F (2014)
Min Temperature 64 °F 59 °F 51 °F (1999)
Cooling Degree Days 6    
Growing Degree Days 22 (Base 50)    
Moisture  
Dew Point 58 °F    
Average Humidity 65    
Maximum Humidity 89    
Minimum Humidity 40    
Precipitation  
Precipitation 0.00 in - - ()
Sea Level Pressure  
Sea Level Pressure 30.06 in    
Wind  
Wind Speed 4 mph ()    
Max Wind Speed 14 mph    
Max Gust Speed -    
Visibility 9.2 miles    
Events      
Averages and records for this station are not official NWS values.
T = Trace of Precipitation, MM = Missing Value Source: Averaged Metar Reports

Daily Weather History Graph

Daily Weather History Graph

Search for Another Location

Airport or City:

Trip Planner

Search our weather history database for the weather conditions in past years. The results will help you decide how hot, cold, wet, or windy it might be!

Date:

Astronomy

Jan. 10, 2013 Rise Set
Actual Time 7:13 AM CST 6:05 PM CST
Civil Twilight 6:48 AM CST 6:29 PM CST
Nautical Twilight 6:21 AM CST 6:57 PM CST
Astronomical Twilight 5:54 AM CST 7:24 PM CST
Moon 5:54 AM CST (1/10) 5:12 PM CST (1/10)
Length of Visible Light 11h 40m
Length of Day
10h 52m
Waning Crescent, 2% of the Moon is Illuminated
Jan 10
Waning Crescent
Jan 11
New
Jan 18
First Quarter
Jan 26
Full
Feb 3
Last Quarter

Hourly Weather History & Observations

Time (CST) Temp. Dew Point Humidity Pressure Visibility Wind Dir Wind Speed Gust Speed Precip Events Conditions
2:40 AM 67 °F 56 °F 59% 30.07 in 6 mi North 6.7 mph - -   Overcast
5:40 AM 66 °F 60 °F 76% 30.06 in 6 mi SW 2.2 mph - -   Overcast
5:40 AM 66.2 °F 55.4 °F 68% 29.96 in 6.0 mi NNW 4.6 mph - N/A   Overcast
6:46 AM 66.2 °F 55.4 °F 68% 30.05 in 7.0 mi NW 3.5 mph - N/A   Overcast
7:40 AM 66.2 °F 55.4 °F 68% 30.07 in 7.0 mi Calm Calm - N/A   Mostly Cloudy
8:40 AM 67 °F 57 °F 62% 30.12 in 15 mi Calm Calm - -   Scattered Clouds
8:42 AM 68.0 °F 55.4 °F 64% 30.11 in 7.0 mi Calm Calm - N/A   Mostly Cloudy
9:43 AM 69.8 °F 57.2 °F 64% 30.11 in 7.0 mi Calm Calm - N/A   Mostly Cloudy
10:41 AM 71.6 °F 57.2 °F 60% 30.11 in 7.0 mi WNW 6.9 mph - N/A   Mostly Cloudy
11:40 AM 73 °F 59 °F 53% 30.13 in 16 mi SW 2.2 mph - -   Mostly Cloudy
11:48 AM 73.4 °F 55.4 °F 53% 30.04 in 7.0 mi Calm Calm - N/A   Mostly Cloudy
12:49 PM 73.4 °F 55.4 °F 53% 30.06 in 7.0 mi NNE 6.9 mph - N/A   Mostly Cloudy
1:51 PM 75.2 °F 53.6 °F 47% 30.02 in 8.0 mi NNE 11.5 mph - N/A   Scattered Clouds
2:40 PM 77 °F 57 °F 40% 30.04 in 16 mi ENE 8.9 mph - -  
2:40 PM 73.4 °F 55.4 °F 53% 30.01 in 10.0 mi NE 12.7 mph - N/A   Clear
3:40 PM 73.4 °F 57.2 °F 57% 30.00 in 10.0 mi ENE 10.4 mph - N/A   Clear
4:45 PM 71.6 °F 57.2 °F 60% 30.01 in 10.0 mi NE 13.8 mph - N/A   Clear
5:40 PM 72 °F 59 °F 54% 30.05 in 15 mi ENE 8.9 mph - -  
5:47 PM 69.8 °F 57.2 °F 64% 30.02 in 10.0 mi ENE 8.1 mph - N/A   Clear
6:47 PM 68.0 °F 59.0 °F 73% 30.03 in 10.0 mi ENE 5.8 mph - N/A   Clear
7:47 PM 68.0 °F 60.8 °F 78% 30.05 in 10.0 mi ENE 4.6 mph - N/A   Scattered Clouds
8:45 PM 68 °F 64 °F 82% 30.09 in 6 mi NE 4.5 mph - -   Mostly Cloudy
8:48 PM 69.8 °F 62.6 °F 78% 30.06 in 10.0 mi NE 4.6 mph - N/A   Scattered Clouds
9:49 PM 69.8 °F 62.6 °F 78% 30.07 in 10.0 mi NE 4.6 mph - N/A   Scattered Clouds
10:47 PM 68.0 °F 64.4 °F 88% 30.09 in 10.0 mi NNE 6.9 mph - N/A   Scattered Clouds
11:35 PM 64 °F 62 °F 89% 30.13 in 6 mi North 4.5 mph - -   Scattered Clouds